CST,Max TemperatureF,Mean TemperatureF,Min TemperatureF,Max Dew PointF,MeanDew PointF,Min DewpointF,Max Humidity, Mean Humidity, Min Humidity, Max Sea Level PressureIn, Mean Sea Level PressureIn, Min Sea Level PressureIn, Max VisibilityMiles, Mean VisibilityMiles, Min VisibilityMiles, Max Wind SpeedMPH, Mean Wind SpeedMPH, Max Gust SpeedMPH,PrecipitationIn, CloudCover, Events, WindDirDegrees
2013-2-1,-23,-29,-35,-33,-40,-45,57,50,30,29.79,29.69,29.53,15,10,1,29,9,34,0.00,2,Snow,2
2013-2-2,-30,-32,-35,-42,-45,-47,56,49,13,29.55,29.49,29.46,6,3,1,31,20,31,0.00,3,Snow,329
2013-2-3,-32,-34,-36,-44,-45,-47,61,53,33,29.58,29.51,29.48,15,15,12,20,14,,0.00,1,Snow,328
2013-2-4,-29,-33,-37,-42,-44,-47,61,51,31,30.07,29.82,29.60,15,15,15,12,3,,0.00,1,Snow,154
2013-2-5,-26,-30,-35,-40,-41,-45,68,51,31,30.18,30.12,30.00,15,15,15,8,5,,0.00,1,Snow,161
2013-2-6,-34,-36,-37,-44,-46,-47,61,56,35,29.99,29.95,29.93,15,14,9,10,8,,0.00,0,Snow,330
2013-2-7,-33,-36,-38,-44,-46,-47,61,57,36,29.94,29.92,29.91,15,13,8,13,8,,0.00,1,Snow,330
2013-2-8,-32,-36,-39,-44,-46,-48,61,54,33,29.94,29.92,29.90,15,14,10,15,9,,0.00,2,Snow,325
2013-2-9,-31,-34,-36,-44,-44,-45,56,52,34,30.10,30.00,29.94,15,14,10,16,12,,0.00,1,Snow,325
2013-2-10,-27,-32,-36,-40,-44,-47,61,52,34,30.12,30.06,29.96,15,14,8,6,2,,0.00,2,Snow,209
2013-2-11,-13,-24,-35,-24,-30,-40,64,53,34,29.94,29.86,29.78,15,11,5,21,10,33,0.00,4,Snow,107
2013-2-12,-11,-15,-19,-26,-29,-31,53,48,31,29.77,29.74,29.71,15,12,8,21,15,24,0.01,6,Snow,64
2013-2-13,-11,-16,-25,-27,-30,-38,53,47,14,29.91,29.81,29.72,15,14,8,18,11,18,0.00,3,Snow,69
2013-2-14,-27,-32,-36,-38,-43,-47,56,48,27,30.17,30.06,29.92,15,11,3,10,5,,0.01,4,Snow,18
2013-2-15,-33,-35,-37,-41,-45,-49,68,57,25,30.30,30.25,30.18,15,14,9,9,4,,0.00,4,Snow,126
2013-2-16,-31,-36,-41,-39,-44,-47,75,65,47,30.42,30.36,30.30,15,12,4,9,4,,0.00,0,Snow,330
2013-2-17,-35,-38,-41,-42,-44,-46,74,65,46,30.51,30.46,30.42,15,11,4,8,7,,0.00,2,Snow,326
2013-2-18,-32,-37,-42,-42,-45,-49,74,65,50,30.59,30.57,30.52,15,13,3,10,6,,0.00,0,Snow,326
2013-2-19,-38,-40,-41,-44,-46,-47,74,71,51,30.57,30.54,30.50,15,14,10,12,8,,0.00,1,Snow,323
2013-2-20,-41,-43,-45,-45,-48,-51,90,76,58,30.53,30.49,30.47,15,15,15,12,9,,0.00,0,Snow,330
2013-2-21,-16,-32,-45,-26,-38,-49,74,61,30,30.51,30.44,30.31,15,8,0,29,8,34,0.00,4,Snow,119
2013-2-22,-10,-19,-28,-18,-21,-25,70,66,50,30.30,30.21,30.16,6,3,0,26,22,30,0.01,6,Snow,102
2013-2-23,-16,-20,-23,-21,-26,-31,76,65,46,30.20,30.18,30.17,15,11,4,24,20,22,0.00,2,Snow,66
2013-2-24,-17,-24,-31,-24,-30,-38,83,68,47,30.24,30.21,30.17,15,15,10,24,13,20,0.00,0,Snow,67
2013-2-25,-32,-36,-40,-33,-42,-47,75,68,50,30.27,30.24,30.21,15,14,6,15,6,,0.00,1,Snow,329
2013-2-26,-33,-38,-42,-42,-45,-49,74,66,46,30.38,30.31,30.28,15,12,8,29,12,34,0.00,1,Snow,334
2013-2-27,-35,-39,-43,-44,-46,-49,74,66,47,30.54,30.48,30.40,15,14,10,24,16,,0.00,1,Snow,325
2013-2-28,-40,-42,-45,-47,-48,-49,74,69,54,30.51,30.49,30.45,15,15,15,16,6,,0.00,1,Snow,341